Regional Weather Roundup
Issued by NWS

Home | Current Version | Previous Version | Text Only | Print | Product List | Glossary On
Versions: 1 2 3 4 5 6 7 8 9 10 11 12 13 14 15 16 17 18 19 20 21 22 23 24 25 26 27 28 29 30 31 32 33 34 35 36 37 38 39 40 41 42 43 44 45 46 47 48 49 50
000
ASUS42 KFFC 051403
RWRGA
WEATHER ROUNDUP FOR GEORGIA
NATIONAL WEATHER SERVICE PEACHTREE CITY GA
1000 AM EDT TUE MAY 05 2015

NOTE: "FAIR" INDICATES FEW OR NO CLOUDS BELOW 12,000 FEET WITH NO
SIGNIFICANT WEATHER AND/OR OBSTRUCTIONS TO VISIBILITY.

* = USE WITH CAUTION. THE STATIONS MARKED WITH AN ASTERISK MAY NOT
REPORT WEATHER SUCH AS PRECIPITATION, FOG, OR THUNDER AND ARE NOT
QUALITY CONTROLLED BY NWS.

THE REMARK "TC" DENOTES TEMPERATURE READING IN DEGREES CELSIUS.

GAZ001>058-051500-
NORTH GEORGIA

CITY           SKY/WX    TMP DP  RH WIND       PRES   REMARKS
ATLANTA        SUNNY     68  54  60 SE3       30.34F
ATHENS         SUNNY     68  55  63 CALM      30.36S
CHAMBLEE       SUNNY     69  55  60 CALM      30.35S
PEACHTREE CITY SUNNY     68  56  65 SE5       30.34F
ROME           SUNNY     68  58  70 SE5       30.34S
WEST ATLANTA   SUNNY     69  57  65 NE3       30.34F
GAINESVILLE    PTSUNNY   68  54  60 CALM      30.38S
CARTERSVILLE   SUNNY     68  56  65 E5        30.35F


CITY           SKY/WX    TMP DP  RH WIND       PRES   REMARKS
DALTON*        SUNNY     68  57  68 SE6       30.35S
LAWRENCEVILLE* SUNNY     68  52  56 CALM      30.36S
KENNESAW*      SUNNY     68  57  68 CALM      30.36
BLAIRSVILLE*     N/A     67  31  26 CALM      30.38F
$$

GAZ059>098-102>109-051500-
CENTRAL GEORGIA

CITY           SKY/WX    TMP DP  RH WIND       PRES   REMARKS
AUGUSTA-BUSH   SUNNY     70  58  65 NE3       30.35S
AUGUSTA-DANIEL SUNNY     71  55  56 E3        30.36S
COLUMBUS       SUNNY     68  56  65 E6        30.31S
MACON          SUNNY     70  60  70 E5        30.32F


CITY           SKY/WX    TMP DP  RH WIND       PRES   REMARKS
LAGRANGE*      SUNNY     72  61  67 CALM      30.32F
SYLVANIA*      SUNNY     72  61  67 E8        30.34R
MILLEDGEVILLE* SUNNY     70  63  78 CALM      30.34F
$$

GAZ099>101-110>166-051500-
SOUTH GEORGIA

CITY           SKY/WX    TMP DP  RH WIND       PRES   REMARKS
SAVANNAH       MOSUNNY   74  59  59 NE13      30.31R
VALDOSTA       SUNNY     74  60  61 NE9       30.27R
ALMA           SUNNY     73  59  61 VRB7      30.30R
ST SIMONS      PTSUNNY   74  58  57 NE15      30.27S
ALBANY         SUNNY     72  59  63 E9        30.31S
HUNTER AFB     SUNNY     73  63  68 E9        30.28R
BRUNSWICK      MOSUNNY   73  59  60 NE14      30.28S


CITY           SKY/WX    TMP DP  RH WIND       PRES   REMARKS
BAINBRIDGE*    SUNNY     77  63  61 E10       30.28R
MOULTRIE*      SUNNY     72  61  68 NE7       30.28S
VIDALIA*       SUNNY     70  61  73 NE8       30.32S
WAYCROSS*      SUNNY     77  64  62 E9G16     30.28S
DOUGLAS*       SUNNY     73  59  60 E8        30.31S
$$



USA.gov is the U.S. government's official web portal to all federal, state and local government web resources and services.